User: anonymous   Login
Location: Unspecified
(0.0000°N, 0.0000°E)
Time: 14:19:21
(UTC+00:00)
Language:

UNK - Orbit

View from above orbital plane
View from above orbital plane
View from above satellite
View from above satellite

Ground track
Ground track

The orbit data is extracted from the following two-line orbital elements,

1 27942U 03042D   18114.91587806 +.00000156 +00000-0 +27269-4 0  9994
2 27942 097.7951 281.8999 0063153 142.6797 217.8828 14.79174887782317
Epoch (UTC): 24 April 2018 21:58:51
Eccentricity: 0.0063153
inclination: 97.7951°
perigee height: 587 km
apogee height: 676 km
right ascension of ascending node: 281.8999°
argument of perigee: 142.6797°
revolutions per day: 14.79174887
mean anomaly at epoch: 217.8828°
orbit number at epoch: 78231

The dashed part of the orbit path shows where the satellite is in the earth's shadow,  

DLR